METAR LSZS 241220Z 21020KT 9999 SCT042 10/M01 Q1017 RMK N=
Diese Daten sind ohne Gewähr und dürfen nicht für die Flugvorbereitung verwendet werden.
Information contained in this website shall not be used for flight operation purposes.